Regional Weather Roundup
Issued by NWS

Home | Current Version | Previous Version | Text Only | Print | Product List | Glossary On
Versions: 1 2 3 4 5 6 7 8 9 10 11 12 13 14 15 16 17 18 19 20 21 22 23 24 25 26 27
000
ASUS45 KBOU 231707
RWRCO

WEATHER ROUNDUP FOR COLORADO
NATIONAL WEATHER SERVICE DENVER/BOULDER CO
1100 AM MDT SAT JUL 23 2016

NOTE: "FAIR" INDICATES FEW OR NO CLOUDS BELOW 12000 FEET WITH NO
SIGNIFICANT WEATHER AND/OR OBSTRUCTIONS TO VISIBILITY.

COZ001>005-013-030-031-231800-
...NORTHWEST COLORADO...

CITY           SKY/WX    TMP DP  RH WIND       PRES   REMARKS
CRAIG          FAIR      83  46  27 VRB6      30.24F
HAYDEN         FAIR      77  43  29 E5        30.27F
MEEKER         FAIR      79  49  34 CALM      30.25F
MOUNT WERNER   NOT AVBL
STEAMBOAT SPGS FAIR      76  47  36 CALM      30.29F
WALDEN         FAIR      77  37  24 SW13G18   30.37F
$$

COZ006>008-011-231800-
...WEST CENTRAL VALLEYS...

CITY           SKY/WX    TMP DP  RH WIND       PRES   REMARKS
GRAND JUNCTION FAIR      82  52  35 SE7       30.16F
MONTROSE       FAIR      80  51  36 N7        30.25F
EAGLE          SUNNY     75  46  35 CALM      30.31F
RIFLE          FAIR      79  49  34 VRB3      30.21F
DELTA          FAIR      82  50  32 CALM      30.21F
NUCLA          FAIR      81  45  28 CALM      30.28F
$$

COZ017>023-064>068-231800-
...SOUTHWEST COLORADO...

CITY           SKY/WX    TMP DP  RH WIND       PRES   REMARKS
DURANGO        FAIR      82  44  26 SW9       30.28F
CORTEZ         FAIR      84  49  29 VRB3      30.24F
PAGOSA SPRINGS FAIR      80  37  21 CALM      30.36S
TELLURIDE      FAIR      73  37  27 W5        30.51F
WOLF CREEK PAS FAIR      61  34  36 N9G22     30.74R
$$

COZ009-010-012-014-032>034-037-058>063-231800-
...CENTRAL COLORADO...

CITY           SKY/WX    TMP DP  RH WIND       PRES   REMARKS
ASPEN          FAIR      76  45  33 VRB5      30.37F
BUENA VISTA    FAIR      79  37  22 NW3       30.36F
COPPER MTN     FAIR      61  34  36 NW16G22   30.72S
BERTHOUD PASS  FAIR      54  37  54 NE5G20    30.74S
COTTONWOOD PAS FAIR      73  34  23 CALM      30.53S
GUNNISON       FAIR      68  48  49 W5        30.43F
KREMMLING      FAIR      73  43  33 E5        30.37F
LEADVILLE      FAIR      67  35  30 W9        30.52F
MONARCH PASS   FAIR      59  41  51 N9        30.82S
SALIDA         FAIR      79  41  26 CALM      30.40F
SUNLIGHT       FAIR      66  45  45 W3        30.65S
WILKERSON PASS PTSUNNY   64  34  32 S5        30.66S
$$

COZ069>075-231800-
...SAN LUIS VALLEY/SANGRE DE CRISTO MOUNTAINS...

CITY           SKY/WX    TMP DP  RH WIND       PRES   REMARKS
ALAMOSA        FAIR      77  47  34 CALM      30.36S
LA VETA PASS   FAIR      68  39  34 SW5       30.56S
SAGUACHE       FAIR      77  45  31 NW14      30.37F
$$

COZ035-036-038>040-231800-
...NORTHERN COLORADO FRONT RANGE...

CITY           SKY/WX    TMP DP  RH WIND       PRES   REMARKS
DENVER INTL AP FAIR      92  42  17 CALM      30.12S
DMNS CITY PARK   N/A     91  43  19 E2        30.11S
AURORA         MOSUNNY   88  43  20 NE6       30.14F
FRONT RANGE AP MOSUNNY   91  41  17 CALM      30.14S
ERIE MUNI ARPT FAIR      92  42  17 S6        30.08S
BOULDER MUN AP FAIR      86  50  28 NE6       30.09S
CENTENNIAL     FAIR      88  36  15 NE6       30.16S
BROOMFIELD     MOSUNNY   90  41  18 SE6       30.13F
LONGMONT       FAIR      91  47  22 E5        30.09S
$$

COZ041-046-047-076>085-087-088-231800-
...PIKES PEAK/PALMER DIVIDE AND SOUTHERN FOOTHILLS...

CITY           SKY/WX    TMP DP  RH WIND       PRES   REMARKS
COLO. SPRINGS  FAIR      89  42  19 VRB6      30.20S
A. F. ACADEMY  FAIR      86  40  19 NE3       30.22S
SCHRIEVER AFB  NOT AVBL
ELLICOTT       FAIR     N/A N/A N/A NE9G20    30.17S
FALCON         FAIR      85  39  19 N8        30.27R
FORT CARSON    FAIR      89  43  20 N3        30.16S
LIMON          FAIR      92  43  18 N17G25    30.12R
MONUMENT HILL  FAIR      79  43  27 N5        30.29S
TRINIDAD       NOT AVBL
$$

COZ042>045-048>051-090-091-231800-
...NORTHEAST COLORADO...

CITY           SKY/WX    TMP DP  RH WIND       PRES   REMARKS
GREELEY ARPT   FAIR      90  55  31 S6        30.06F
AKRON          FAIR      89  52  28 NW10      30.06R
BURLINGTON     FAIR      89  58  34 NW10      30.01R
WRAY           NOT AVBL
STERLING       FAIR      86  68  54 CALM      29.99F
HOLYOKE        FAIR      86  66  51 W5        29.97F
FORT MORGAN    FAIR      90  51  26 SW5       30.06R
$$

COZ086-089-092>099-231800-
...SOUTHEAST COLORADO...

CITY           SKY/WX    TMP DP  RH WIND       PRES   REMARKS
PUEBLO         FAIR      97  45  16 W10       30.06S
LA JUNTA       FAIR      92  51  24 VRB3      30.02S
LAMAR          FAIR      92  58  31 NW6       29.95S
SPRINGFIELD      N/A     96  50  20 S9        30.01F
$$




USA.gov is the U.S. government's official web portal to all federal, state and local government web resources and services.